Weather History for Altus AFB, OK

Change the Weather History Date:

Tuesday, January 10, 2012

  Actual Average Record
Temperature  
Mean Temperature 46 °F -  
Max Temperature 58 °F 48 °F 69 °F (2000)
Min Temperature 32 °F 26 °F 17 °F (1999)
Degree Days  
Heating Degree Days 18    
Moisture  
Dew Point 31 °F    
Average Humidity 63    
Maximum Humidity 81    
Minimum Humidity 26    
Precipitation  
Precipitation 0.00 in - - ()
Sea Level Pressure  
Sea Level Pressure 29.99 in    
Wind  
Wind Speed 7 mph (NNW)    
Max Wind Speed 14 mph    
Max Gust Speed -    
Visibility 10 miles    
Events Rain    
Averages and records for this station are not official NWS values.
T = Trace of Precipitation, MM = Missing Value Source: NWS Daily Summary

Daily Weather History Graph

Daily Weather History Graph

Search for Another Location

Airport:

Trip Planner

Search our weather history database for the weather conditions in past years. The results will help you decide how hot, cold, wet, or windy it might be!

Date:

Astronomy

Jan. 10, 2012 Rise Set
Actual Time 7:44 AM CST 5:44 PM CST
Civil Twilight 7:17 AM CST 6:12 PM CST
Nautical Twilight 6:45 AM CST 6:43 PM CST
Astronomical Twilight 6:15 AM CST 7:13 PM CST
Moon 7:32 PM CST (1/10) 8:28 AM CST (1/10)
Length of Visible Light 10h 54m
Length of Day
9h 59m
Full, 98% of the Moon is Illuminated
Jan 10
Full
Jan 16
Last Quarter
Jan 23
New
Jan 30
First Quarter
Feb 7
Full

Hourly Weather History & Observations

Time (CST) Temp. Windchill Dew Point Humidity Pressure Visibility Wind Dir Wind Speed Gust Speed Precip Events Conditions
12:55 AM 43.0 °F 39.5 °F 29.3 °F 59% 30.09 in 10.0 mi NW 5.8 mph - N/A   Clear
1:55 AM 42.8 °F 40.1 °F 30.0 °F 61% 30.09 in 10.0 mi WNW 4.6 mph - N/A   Scattered Clouds
2:31 AM 42.8 °F 37.5 °F 32.0 °F 66% 30.08 in 10.0 mi NNW 9.2 mph - N/A   Scattered Clouds
2:38 AM 41.0 °F 35.2 °F 32.0 °F 70% 30.07 in 10.0 mi North 9.2 mph - N/A   Light Drizzle
2:42 AM 41.0 °F 34.3 °F 33.8 °F 76% 30.07 in 10.0 mi NNW 11.5 mph - N/A   Mostly Cloudy
2:55 AM 41.2 °F 34.5 °F 32.7 °F 72% 30.06 in 10.0 mi NNW 11.5 mph - 0.00 in   Mostly Cloudy
3:15 AM 42.8 °F 37.5 °F 32.0 °F 66% 30.05 in 10.0 mi NNW 9.2 mph - N/A Rain Light Rain
3:34 AM 41.0 °F 38.0 °F 33.8 °F 76% 30.05 in 10.0 mi NW 4.6 mph - N/A   Scattered Clouds
3:45 AM 41.0 °F 36.4 °F 33.8 °F 76% 30.04 in 10.0 mi NW 6.9 mph - N/A   Light Drizzle
3:55 AM 41.4 °F 34.7 °F 34.0 °F 75% 30.03 in 10.0 mi NW 11.5 mph - 0.00 in   Light Drizzle
3:57 AM 41.0 °F 38.0 °F 33.8 °F 76% 30.04 in 10.0 mi NNW 4.6 mph - N/A   Light Drizzle
3:59 AM 41.0 °F 37.1 °F 33.8 °F 76% 30.03 in 10.0 mi NNW 5.8 mph - N/A   Mostly Cloudy
4:13 AM 41.0 °F 36.4 °F 33.8 °F 76% 30.04 in 10.0 mi NNW 6.9 mph - N/A   Mostly Cloudy
4:46 AM 41.0 °F 36.4 °F 35.6 °F 81% 30.04 in 10.0 mi North 6.9 mph - N/A   Overcast
4:55 AM 40.6 °F 36.0 °F 35.1 °F 80% 30.04 in 10.0 mi North 6.9 mph - 0.00 in   Overcast
5:55 AM 41.4 °F 37.6 °F 33.1 °F 72% 30.04 in 10.0 mi NW 5.8 mph - N/A   Overcast
6:19 AM 41.0 °F 34.7 °F 32.0 °F 70% 30.02 in 10.0 mi NW 10.4 mph - N/A   Scattered Clouds
6:38 AM 39.2 °F 33.0 °F 32.0 °F 75% 30.03 in 10.0 mi NNW 9.2 mph - N/A   Mostly Cloudy
6:55 AM 39.6 °F 34.0 °F 32.7 °F 76% 30.03 in 10.0 mi NW 8.1 mph - N/A   Mostly Cloudy
7:55 AM 39.2 °F 32.5 °F 29.7 °F 69% 30.02 in 10.0 mi NW 10.4 mph - N/A   Overcast
8:55 AM 39.6 °F 34.0 °F 29.5 °F 67% 30.04 in 10.0 mi North 8.1 mph - N/A   Overcast
9:11 AM 41.0 °F 34.3 °F 30.2 °F 65% 30.05 in 10.0 mi North 11.5 mph - N/A   Mostly Cloudy
9:18 AM 41.0 °F 33.9 °F 30.2 °F 65% 30.04 in 10.0 mi North 12.7 mph - N/A   Mostly Cloudy
9:20 AM 41.0 °F 34.3 °F 30.2 °F 65% 30.04 in 10.0 mi North 11.5 mph - N/A   Mostly Cloudy
9:55 AM 42.1 °F 36.6 °F 31.1 °F 65% 30.04 in 10.0 mi North 9.2 mph - 0.00 in   Overcast
9:59 AM 42.8 °F 37.5 °F 32.0 °F 66% 30.04 in 10.0 mi North 9.2 mph - N/A   Mostly Cloudy
10:04 AM 42.8 °F 38.0 °F 32.0 °F 66% 30.04 in 10.0 mi North 8.1 mph - N/A   Scattered Clouds
10:08 AM 42.8 °F 38.0 °F 32.0 °F 66% 30.04 in 10.0 mi North 8.1 mph - N/A   Light Drizzle
10:19 AM 44.6 °F 40.7 °F 32.0 °F 61% 30.04 in 10.0 mi North 6.9 mph - N/A   Partly Cloudy
10:55 AM 46.6 °F - 31.5 °F 56% 30.02 in 10.0 mi North 8.1 mph - 0.00 in   Mostly Cloudy
11:55 AM 50.5 °F - 31.8 °F 49% 29.99 in 10.0 mi North 10.4 mph - N/A   Partly Cloudy
12:55 PM 53.4 °F - 30.4 °F 41% 29.93 in 10.0 mi NNW 11.5 mph - N/A   Partly Cloudy
1:55 PM 56.8 °F - 26.2 °F 31% 29.88 in 10.0 mi NNW 13.8 mph - N/A   Clear
2:55 PM 58.5 °F - 23.9 °F 26% 29.86 in 10.0 mi North 10.4 mph - N/A   Clear
3:55 PM 58.6 °F - 24.6 °F 27% 29.86 in 10.0 mi North 6.9 mph - N/A   Clear
4:55 PM 58.1 °F - 25.5 °F 29% 29.85 in 10.0 mi NE 5.8 mph - N/A   Clear
5:55 PM 49.8 °F - 30.9 °F 48% 29.85 in 10.0 mi East 3.5 mph - N/A   Clear
6:55 PM 43.7 °F 42.1 °F 28.8 °F 56% 29.86 in 10.0 mi SSE 3.5 mph - N/A   Clear
7:55 PM 42.1 °F - 27.0 °F 55% 29.84 in 10.0 mi Calm Calm - N/A   Clear
8:55 PM 39.6 °F - 26.2 °F 59% 29.84 in 10.0 mi Calm Calm - N/A   Clear
9:55 PM 37.0 °F - 25.7 °F 64% 29.84 in 10.0 mi Calm Calm - N/A   Clear
10:55 PM 35.6 °F - 26.1 °F 68% 29.83 in 10.0 mi Calm Calm - N/A   Clear
11:55 PM 32.4 °F - 25.7 °F 76% 29.81 in 10.0 mi Calm Calm - N/A   Clear